Theta_e
320 320 320 318 319 319 318 318 319 319 320 320 320 319 317 317 317 314 311 314 313 309 309 310 312 312 312 313 311 313 309 308 304 308 310 314 314 318 323 324 327 326 326
321 319 318 318 318 318 318 319 317 316 316 316 316 315 315 314 311 312 314 315 311 308 309 310 312 314 311 311 310 310 312 310 306 304 307 310 311 316 318 317 320 324 322
322 319 319 318 318 317 315 314 317 314 311 312 312 312 313 313 312 310 310 310 310 311 310 309 309 309 308 308 310 309 310 310 309 305 306 308 313 317 317 314 313 312 316
318 318 316 315 314 315 314 314 313 312 311 310 310 311 311 311 307 307 307 309 309 309 309 309 309 308 308 308 308 305 305 302 303 304 305 306 307 311 314 311 309 308 308
317 315 314 315 315 315 314 312 311 310 309 310 310 309 309 305 305 305 305 306 306 304 306 308 308 311 313 311 306 303 303 303 302 302 301 303 303 306 307 310 308 304 305
315 314 316 315 312 310 309 308 308 307 308 308 307 308 306 306 303 304 304 303 302 303 303 305 306 305 305 308 308 309 308 300 297 298 299 301 301 303 305 307 304 301 299
313 313 311 310 309 308 306 306 305 303 304 303 304 305 304 300 301 300 303 299 300 301 301 301 304 304 301 300 302 305 305 306 306 301 298 299 300 302 303 302 301 300 300
309 308 308 307 305 305 304 304 302 302 302 302 303 303 302 301 300 299 300 299 299 299 300 300 301 299 301 299 298 299 300 300 301 302 298 299 301 303 302 302 302 302 303
306 306 306 305 304 304 302 301 301 301 301 301 302 301 300 298 300 299 297 296 297 296 298 298 303 303 300 299 297 297 298 299 304 303 302 302 302 302 304 300 300 297 299
304 305 305 305 303 301 301 301 301 301 302 302 302 301 303 298 299 298 297 296 294 296 297 299 303 301 298 298 295 294 293 296 295 296 298 302 303 306 306 306 305 300 302
306 305 304 302 301 301 301 300 300 301 298 295 299 299 297 298 297 298 298 295 294 295 297 300 302 301 297 297 296 293 294 297 297 295 298 298 299 300 303 305 306 305 303
305 304 302 301 302 303 300 299 299 294 293 293 293 293 294 295 299 298 297 296 298 295 298 298 297 297 296 296 297 297 296 297 294 294 296 298 296 296 298 299 300 303 306
303 302 300 301 299 300 297 296 295 293 291 291 291 291 292 294 294 297 297 297 297 296 296 297 297 297 297 298 298 298 297 294 293 291 292 294 296 297 298 298 299 298 299
301 299 302 301 298 297 298 297 295 293 291 291 291 290 291 292 292 292 293 293 296 295 296 295 299 299 297 296 294 294 294 293 292 291 292 296 295 296 294 299 298 299 296
301 300 300 299 298 298 298 297 297 295 294 292 291 291 290 290 292 292 291 291 291 292 292 294 295 292 289 290 292 292 293 295 293 292 292 294 294 294 296 298 295 294 293
300 299 300 298 297 297 297 297 295 296 294 294 294 292 292 294 293 292 292 292 292 292 292 292 292 288 288 288 289 290 292 294 295 295 295 296 295 294 294 295 293 295 293
298 299 295 297 297 296 296 296 294 295 294 294 294 293 292 293 292 292 292 291 291 292 291 292 290 290 290 289 289 289 289 292 293 292 293 294 294 294 294 293 295 293 291
296 298 297 297 297 296 297 297 295 294 295 292 292 292 293 292 292 292 293 291 292 293 291 291 291 292 291 290 290 290 291 293 292 292 291 292 292 292 292 292 291 293 292
298 299 297 296 295 298 296 295 296 296 297 295 294 292 292 292 292 291 291 289 291 291 291 291 293 293 292 292 291 291 291 291 290 290 289 290 291 290 290 292 291 290 290
300 299 295 295 297 297 295 294 294 294 294 297 294 292 290 289 291 292 292 293 291 291 291 291 292 293 293 293 292 291 289 288 287 287 287 288 289 290 289 290 292 291 291
302 299 292 295 295 297 294 293 294 293 294 295 292 291 288 289 289 290 291 292 292 292 291 291 292 293 293 293 292 291 289 287 286 285 286 286 287 287 289 290 291 292 289
300 299 298 297 298 297 294 294 294 294 293 292 292 290 286 287 290 292 292 293 293 294 293 293 293 293 293 292 292 290 288 286 286 285 285 286 286 286 288 287 288 292 289
299 299 299 298 298 293 293 295 294 294 293 293 293 293 291 291 292 292 293 294 294 294 294 294 294 293 294 293 292 290 286 285 285 285 284 284 284 285 286 286 288 290 287
297 297 299 298 297 295 294 294 294 292 294 294 294 293 292 293 293 294 294 294 295 295 295 294 294 294 294 293 291 289 286 285 284 284 284 283 283 284 285 286 288 291 288
297 297 298 298 298 294 295 294 295 296 295 295 294 294 293 294 294 295 295 294 295 295 295 295 295 295 295 293 291 289 285 284 284 283 282 282 282 284 286 288 290 288 288
298 299 299 297 297 296 296 295 295 296 296 295 295 294 295 295 294 295 295 295 295 295 295 295 296 297 297 293 291 286 284 284 283 283 282 282 284 286 288 289 288 288 288
Wind_Speed
8 7 7 6 5 6 5 6 5 5 6 7 6 6 6 6 7 6 7 4 5 6 7 6 7 7 5 4 4 4 3 3 2 4 3 8 7 10 8 5 5 6 5
9 8 7 7 6 7 7 7 6 6 6 6 7 6 6 6 6 6 7 6 6 6 7 8 7 8 7 6 4 6 6 4 2 6 4 6 6 6 7 6 5 6 6
7 6 7 8 8 9 6 6 5 5 6 6 6 7 7 6 6 6 6 6 7 8 9 7 7 7 6 4 4 5 5 6 5 3 6 5 6 7 7 5 6 6 6
9 10 10 9 8 5 5 5 5 4 4 4 4 5 6 5 5 6 6 7 7 9 8 7 7 6 5 5 5 5 5 4 4 4 6 6 4 6 4 6 7 3 6
11 9 8 6 5 5 5 3 5 6 5 5 5 5 6 5 4 4 5 6 5 7 7 6 7 9 9 2 2 5 5 5 5 6 6 5 4 7 6 5 5 4 6
9 7 7 6 6 4 6 7 7 5 4 4 5 5 4 3 6 8 6 6 6 6 6 7 7 8 9 13 14 14 8 5 5 3 4 5 4 4 4 4 3 3 4
9 6 7 6 8 7 7 7 6 5 5 6 5 4 4 3 6 9 12 5 6 6 6 5 6 4 6 6 10 11 9 11 10 4 3 4 6 6 4 5 4 3 4
7 7 6 9 7 6 7 5 3 3 3 4 5 5 3 2 5 7 12 7 6 6 6 6 5 3 5 5 7 7 7 7 6 4 3 6 7 9 7 6 5 5 5
7 9 7 7 7 7 6 5 4 4 4 4 3 4 4 3 3 6 7 6 5 7 9 7 4 4 7 8 6 7 8 8 7 11 12 14 14 12 8 2 4 3 4
8 9 7 7 7 6 4 3 2 2 3 3 4 3 6 3 1 5 6 4 6 6 7 6 7 6 9 8 5 5 7 7 6 9 10 8 8 7 7 3 3 5 4
9 7 7 4 5 5 3 2 1 3 5 6 5 4 4 2 2 5 6 4 4 5 5 6 6 12 12 12 9 6 7 5 11 6 6 5 5 5 4 5 3 3 5
8 7 5 4 4 4 4 3 4 4 5 5 5 4 3 4 5 6 5 3 7 4 5 6 7 14 13 13 11 13 14 6 4 5 5 4 3 3 5 5 6 5 4
7 6 4 6 5 3 1 3 3 4 3 3 3 3 3 3 3 8 9 10 7 5 4 11 16 13 13 10 13 15 9 5 4 3 4 3 3 3 6 5 5 5 5
7 4 4 6 4 1 1 1 3 2 2 2 3 3 3 3 3 4 4 5 7 6 8 8 10 11 7 6 6 8 6 5 3 3 4 4 3 2 3 3 3 4 3
6 4 4 4 4 2 3 3 3 2 4 2 1 1 1 3 3 3 4 4 4 5 8 4 4 4 5 6 7 7 6 9 7 6 5 5 4 3 3 2 2 3 2
4 2 2 4 2 2 2 3 4 6 9 9 6 3 3 7 5 7 9 10 11 6 3 4 3 3 4 4 5 5 5 9 8 7 8 8 5 4 6 3 2 1 1
5 4 3 3 3 3 3 3 3 3 5 7 8 9 7 11 13 11 11 12 14 4 1 4 2 3 3 3 4 4 4 6 6 5 7 8 8 9 9 5 4 3 3
4 4 3 3 4 4 5 5 4 3 4 4 7 9 12 10 12 14 8 8 5 4 2 3 4 4 3 3 3 4 5 6 5 6 7 7 8 9 9 9 7 6 5
5 4 4 4 4 5 4 3 4 4 1 4 2 1 10 14 15 11 3 3 3 2 4 4 3 4 4 4 3 4 5 5 5 6 7 7 7 7 9 10 7 10 6
4 6 4 3 4 4 2 3 3 3 3 5 4 4 2 2 4 3 2 2 2 2 2 3 3 3 4 4 4 4 5 4 4 6 7 7 7 7 7 9 8 6 4
3 5 6 4 4 3 3 2 1 3 3 3 5 4 5 2 3 3 1 1 2 1 2 1 1 2 3 3 4 4 4 3 4 4 5 6 7 8 7 7 8 5 2
1 4 5 5 5 3 3 3 3 1 2 2 3 3 5 2 3 3 1 2 3 3 4 3 2 1 1 1 1 2 3 4 4 4 5 5 6 7 7 7 7 7 3
3 4 3 5 4 6 3 3 4 3 4 3 3 4 4 4 5 2 3 3 3 3 4 3 3 2 3 3 1 3 2 3 4 4 5 6 6 6 6 7 8 8 5
3 5 5 5 2 4 4 2 4 4 4 4 2 3 3 3 5 5 5 4 4 4 5 4 5 6 5 3 4 4 2 1 3 4 6 6 7 7 6 7 8 11 5
5 5 5 5 4 4 4 5 4 4 4 4 5 3 4 4 4 5 5 5 5 5 6 6 5 7 7 8 7 6 3 2 2 4 4 5 6 9 8 7 10 6 7
6 6 6 5 4 4 3 3 3 3 4 4 5 4 5 5 6 6 5 6 5 5 6 5 6 11 8 7 7 7 5 2 1 4 4 4 5 7 7 8 9 6 8
Wind_Direction
164 168 166 185 163 142 88 64 52 33 19 6 355 348 343 6 4 356 343 357 19 355 342 341 327 324 311 322 324 330 318 354 337 310 305 324 330 344 336 327 326 320 316
175 160 164 164 134 100 83 70 65 47 34 19 13 16 7 359 345 335 344 359 3 350 329 341 319 332 327 326 336 338 341 351 354 322 313 331 329 340 335 359 345 344 332
175 146 110 85 79 79 77 69 51 56 30 16 3 343 330 327 353 10 0 356 355 335 340 330 323 335 330 345 16 6 360 351 1 335 321 333 325 358 352 341 343 348 357
95 93 90 92 93 90 99 89 54 38 29 2 343 331 327 328 50 21 3 350 346 338 330 318 321 341 342 355 18 352 348 345 342 339 328 330 329 345 328 349 341 338 346
93 93 95 103 103 100 91 57 48 43 27 8 355 349 3 58 39 18 353 327 323 325 321 322 329 350 360 7 22 332 337 341 338 338 326 323 315 340 340 328 325 318 332
113 132 136 127 120 111 59 63 48 31 9 8 13 23 48 54 7 5 352 314 338 329 326 334 329 34 7 2 352 342 341 336 325 304 304 312 307 309 305 294 313 350 320
119 117 107 117 86 83 76 65 51 31 11 353 15 20 53 64 13 356 349 334 338 337 348 344 342 39 20 348 335 327 326 332 323 307 337 320 316 307 299 296 287 287 277
108 100 97 91 96 83 77 76 39 12 350 330 347 333 62 86 22 356 352 339 345 352 347 340 351 5 353 349 318 321 318 310 315 349 316 288 288 295 265 250 259 268 283
107 92 97 92 85 84 69 38 13 10 354 346 349 29 42 147 38 9 5 344 350 347 333 327 343 340 327 347 344 331 324 315 328 326 319 307 310 307 337 332 328 336 299
112 102 95 87 101 98 78 15 356 22 331 333 333 61 79 139 298 16 11 345 352 337 323 332 316 300 321 309 307 298 302 287 314 322 323 321 327 334 359 1 15 347 333
116 105 96 92 102 103 73 36 23 8 18 359 338 53 71 130 284 345 39 17 328 316 314 335 331 313 312 309 290 263 247 270 299 304 297 306 331 334 339 336 1 351 325
105 111 118 100 84 91 71 2 81 57 24 19 35 34 23 47 22 2 27 3 354 329 333 329 310 304 309 314 317 299 301 275 296 312 300 293 313 316 321 324 317 324 266
110 119 135 106 95 50 160 127 87 66 48 31 25 5 341 9 24 3 352 348 344 350 332 322 310 319 331 326 321 325 348 358 338 325 347 312 272 282 316 303 308 316 313
129 149 146 131 137 146 333 70 144 115 57 44 13 359 339 352 1 351 332 329 333 338 332 317 306 310 333 341 347 359 357 353 360 332 322 294 315 327 313 306 310 324 343
141 173 143 156 161 220 212 207 183 182 154 144 278 317 359 334 306 290 291 316 311 302 322 312 331 355 13 2 359 356 351 357 343 326 327 321 302 315 292 300 296 327 325
166 155 87 138 180 212 215 275 260 197 172 157 179 205 294 291 287 316 309 305 296 336 327 304 321 28 33 13 358 346 348 349 340 346 351 346 339 331 335 301 288 290 306
157 125 141 146 243 229 249 202 238 266 235 205 199 255 237 251 283 290 294 311 312 358 289 310 359 47 21 13 351 341 317 324 325 348 2 352 355 354 347 326 315 286 309
123 148 163 232 242 243 229 233 234 211 217 228 232 234 269 261 269 279 283 330 338 3 36 18 19 20 8 359 350 336 327 332 343 1 0 353 356 351 348 343 344 352 335
184 197 210 244 266 266 234 234 262 292 282 145 124 258 260 273 277 278 167 217 295 316 33 19 16 16 2 359 341 341 340 356 8 359 353 350 350 350 343 340 333 349 16
200 194 200 249 275 303 213 78 22 7 1 154 176 209 262 347 4 331 241 190 86 79 71 26 2 8 360 354 343 354 0 21 4 359 345 341 340 345 339 336 335 353 47
207 210 222 256 261 233 123 105 292 280 303 129 186 201 194 165 271 284 206 140 157 158 152 59 30 11 354 350 358 10 13 1 355 340 332 328 334 335 332 332 331 328 53
308 205 215 227 245 124 164 179 254 286 142 106 195 234 210 238 279 236 176 228 218 174 177 150 164 219 274 292 342 17 11 348 336 328 318 319 328 322 321 325 320 325 303
275 302 248 242 233 180 210 238 236 231 196 202 230 187 200 232 230 204 220 241 227 183 190 179 168 225 243 235 129 103 67 333 317 316 316 319 315 312 319 309 310 315 295
275 283 282 276 229 192 213 256 218 224 227 221 210 195 224 250 229 236 225 231 222 210 196 195 186 205 231 204 143 134 111 334 318 310 322 303 305 308 302 303 305 298 282
222 247 261 262 258 229 231 230 241 228 203 203 188 204 233 246 234 247 238 224 227 221 213 217 211 221 226 157 165 138 146 254 296 299 306 293 285 292 285 288 299 292 312
222 237 243 239 252 255 231 220 232 235 241 199 206 223 233 233 229 236 236 227 228 229 210 233 232 221 190 172 145 148 184 208 287 292 293 288 290 297 300 297 297 311 306